IRNSS 1E

导读 | 豆包AI

IRNSS 1E是印度空间研究组织研制的导航卫星,属于印度区域导航卫星系统(IRNSS,现称NavIC),该系统为印度自主建设的区域导航体系,可覆盖印度边界外1500公里范围。 这颗卫星于2016年1月20日成功发射,是NavIC系统组网的关键卫星之一,为系统提供定位、授时服务,助力印度实现区域导航自主可控,满足民用和战略领域的导航需求,对印度自主卫星导航系统的建成运行有着重要意义。

Basic Information
目录编号:
41241
目录名称:
IRNSS 1E
国际标识:
2016-003A
轨道中心:
EARTH
卫星名称:
IRNSS 1E
卫星全名:
--
卫星状态:
在轨 (已飞行3706 天)
发射日期:
2016-01-20 UTC
国别 :
印度 (IN)
星等 :
--
Orbit Information
数据来源 国际轨道数据 AOE轨道数据
星历时间 2026-03-13T17:04:56+0800
16小时前
查看轨道信息
2026-03-11T03:00:00+0800
3天前
查看轨道信息
半长轴 42164.981km 42164.672km
偏心率 0.0017351 0.001748
轨道倾角 33.028° 33.022°
近地点辐角 189.288° 188.993°
升交点赤经 61.128° 61.166°
平近点角 168.591° 315.086°
近地点 35713.683km 35712.831km
远地点 35860.005km 35860.239km
周期 1436.110分钟 1436.094分钟
每日圈数 1.002709 1.00272
Detailed Information
使用方式:
暂无
2D Orbit Map
3D Orbit Map
Orbit Altitude Analysis Chart
Orbit Inclination Analysis Chart
Orbit Comprehensive Analysis Chart
View Comprehensive Chart